Overview Statistics Trail Chart Weather Telemetry Raw packets
 

This is the latest recevied weather packets stored in our database for station/object K5FEP. If no packets are shown the sender has not sent any weather packets the latest 10 day(s).

<< 27 28 29 30 31 32 33 >>
Time Temp. Humidity Pressure Rain* Wind** Luminosity Snow
1788452074 36.67° C 42% 1017 hPa 0 mm - 738 W/m² -
1788451769 36.67° C 41% 1016.8 hPa 0 mm - 872 W/m² -
1788451468 36.67° C 42% 1016.9 hPa 0 mm - 853 W/m² -
1788451167 36.67° C 43% 1017 hPa 0 mm - 841 W/m² -
1788450862 35.56° C 44% 1017 hPa 0 mm - 837 W/m² -
1788450558 35.56° C 45% 1017.1 hPa 0 mm - 829 W/m² -
1788450254 35.56° C 46% 1017 hPa 0 mm - 822 W/m² -
1788449955 35.56° C 45% 1017.2 hPa 0 mm - 813 W/m² -
1788449650 35.56° C 46% 1017.3 hPa 0 mm - 798 W/m² -
1788449346 35° C 48% 1017.1 hPa 0 mm - 788 W/m² -
1788449042 35° C 49% 1017.2 hPa 0 mm - 775 W/m² -
1788448737 34.44° C 50% 1017.3 hPa 0 mm - 764 W/m² -
1788448432 33.89° C 51% 1017.4 hPa 0 mm - 751 W/m² -
1788448127 33.89° C 52% 1017.2 hPa 0 mm - 741 W/m² -
1788447827 33.33° C 52% 1017.3 hPa 0 mm - 728 W/m² -
1788447521 33.33° C 54% 1017.4 hPa 0 mm - 709 W/m² -
1788447217 33.89° C 53% 1017.3 hPa 0 mm - 697 W/m² -
1788446916 32.22° C 56% 1017.3 hPa 0 mm - 683 W/m² -
1788446611 32.78° C 56% 1017.3 hPa 0 mm - 668 W/m² -
1788446307 32.78° C 56% 1017.4 hPa 0 mm - 651 W/m² -
1788446004 32.78° C 56% 1017.5 hPa 0 mm - 634 W/m² -
1788445699 31.67° C 58% 1017.4 hPa 0 mm - 619 W/m² -
1788445395 31.11° C 61% 1017.7 hPa 0 mm - 601 W/m² -
1788445090 31.11° C 60% 1017.7 hPa 0 mm - 583 W/m² -
1788444786 31.67° C 60% 1017.5 hPa 0 mm - 566 W/m² -

* Rain latest hour (hover to see other rain measurements)
** Current wind speed in m/s (hover to see current wind gust speed)